Estación de Las Viñas

Ultimos registro cada 15 minutos 48
Estación Fecha / Hora Temperatura Humedad Lluvia Velocidad Dirección Radiación Presion
48 Las Viñas 10-05-2026 11:45 14,1 67 0 0,9 258 292 1018,4
47 Las Viñas 10-05-2026 11:30 13,6 67 0 0,9 153 548 1018,7
46 Las Viñas 10-05-2026 11:15 13 68 0 0 168 529 1018,9
45 Las Viñas 10-05-2026 11:00 12,4 68 0 0 211 504 1019
44 Las Viñas 10-05-2026 10:45 11,9 69 0 0 212 482 1019
43 Las Viñas 10-05-2026 10:30 11,4 70 0 0,4 195 438 1018,9
42 Las Viñas 10-05-2026 10:15 10,9 73 0 0 143 383 1019
41 Las Viñas 10-05-2026 10:00 10,6 72 0 0,4 141 230 1018,9
40 Las Viñas 10-05-2026 09:45 10,1 74 0 0 175 234 1019,2
39 Las Viñas 10-05-2026 09:30 9,4 75 0 0 56 304 1019,2
38 Las Viñas 10-05-2026 09:15 8,8 77 0 0,9 131 100 1019,3
37 Las Viñas 10-05-2026 09:00 8,4 77 0 1,8 210 146 1019,5
36 Las Viñas 10-05-2026 08:45 7,9 78 0 0,4 110 139 1019,5
35 Las Viñas 10-05-2026 08:30 7,7 79 0 0,9 159 26 1019,4
34 Las Viñas 10-05-2026 08:15 7,6 78 0 0 142 18 1019,3
33 Las Viñas 10-05-2026 08:00 7,5 79 0 4 143 14 1019,2
32 Las Viñas 10-05-2026 07:45 7,6 79 0 0 234 9 1018,9
31 Las Viñas 10-05-2026 07:30 7,8 78 0 0 189 0 1018,9
30 Las Viñas 10-05-2026 07:15 7,9 77 0 0,4 175 0 1019
29 Las Viñas 10-05-2026 07:00 8,2 76 0 1,8 197 0 1019,1
28 Las Viñas 10-05-2026 06:45 8,1 77 0 0 180 0 1019
27 Las Viñas 10-05-2026 06:30 8,1 77 0 0,4 185 0 1019,1
26 Las Viñas 10-05-2026 06:15 7,9 78 0 0 190 0 1019
25 Las Viñas 10-05-2026 06:00 7,8 79 0 0 202 0 1019
24 Las Viñas 10-05-2026 05:45 7,6 80 0 0,4 150 0 1018,9
23 Las Viñas 10-05-2026 05:30 7,3 81 0 0 175 0 1019
22 Las Viñas 10-05-2026 05:15 7,2 82 0 0 170 0 1019,2
21 Las Viñas 10-05-2026 05:00 7,1 82 0 0 137 0 1019,1
20 Las Viñas 10-05-2026 04:45 7,1 82 0 0 153 0 1019,2
19 Las Viñas 10-05-2026 04:30 7,2 82 0 0 130 0 1019,2
18 Las Viñas 10-05-2026 04:15 7,2 82 0 0 170 0 1019
17 Las Viñas 10-05-2026 04:00 7,3 82 0 0 156 0 1019,1
16 Las Viñas 10-05-2026 03:45 7,3 81 0 0,4 193 0 1019,2
15 Las Viñas 10-05-2026 03:30 7,4 81 0 0,9 175 0 1019,5
14 Las Viñas 10-05-2026 03:15 7,6 80 0 0 208 0 1019,7
13 Las Viñas 10-05-2026 03:00 7,8 80 0 0 108 0 1019,8
12 Las Viñas 10-05-2026 02:45 8 79 0 0,4 202 0 1019,9
11 Las Viñas 10-05-2026 02:30 8,2 78 0 0 175 0 1020
10 Las Viñas 10-05-2026 02:15 8,3 78 0 0 195 0 1020,2
9 Las Viñas 10-05-2026 02:00 8,3 77 0 0 304 0 1020,1
8 Las Viñas 10-05-2026 01:45 8,3 77 0 0 162 0 1020
7 Las Viñas 10-05-2026 01:30 8,3 77 0 0 139 0 1020,2
6 Las Viñas 10-05-2026 01:15 8,4 76 0 0 135 0 1020,2
5 Las Viñas 10-05-2026 01:00 8,5 76 0 0 123 0 1020,3
4 Las Viñas 10-05-2026 00:45 8,6 76 0 0 164 0 1020,3
3 Las Viñas 10-05-2026 00:30 8,6 76 0 0 185 0 1020,5
2 Las Viñas 10-05-2026 00:15 8,7 76 0 0 156 0 1020,7
1 Las Viñas 10-05-2026 00:00 8,7 76 0 0 200 0 1020,8